When you browse on this site, cookies collect data to enhance your experience and personalize the content and advertising you see.
Visit our Privacy Policy to learn more. By continuing to use the site, you agree to this use of cookies and data.

Hourly Weather Kitzbuhel

Today, 6 August, Thursday

Time Temperature Precipitation Wind Pressure Humidity
00:00 +11°C° 0 mm 1 mps 678 mmHg 94%
01:00 +11°C° 0 mm 1 mps 678 mmHg 94%
02:00 +11°C° 0 mm 1 mps 678 mmHg 94%
03:00 +11°C° 0 mm 1 mps 678 mmHg 94%
04:00 +10°C° 0 mm 1 mps 678 mmHg 93%
05:00 +11°C° 0 mm 0 mps 679 mmHg 89%
06:00 +13°C° 0 mm 0 mps 679 mmHg 85%
07:00 +15°C° 0 mm 0 mps 680 mmHg 82%
08:00 +19°C° 0 mm 1 mps 680 mmHg 74%
09:00 +21°C° 0 mm 1 mps 681 mmHg 67%
10:00 +23°C° 0 mm 1 mps 681 mmHg 59%
11:00 +24°C° 0.1 mm 2 mps 681 mmHg 58%
12:00 +24°C° 0.1 mm 2 mps 681 mmHg 57%
13:00 +25°C° 0 mm 2 mps 682 mmHg 57%
14:00 +25°C° 0.5 mm 2 mps 681 mmHg 61%
15:00 +24°C° 0.5 mm 2 mps 681 mmHg 66%
16:00 +24°C° 0.5 mm 2 mps 681 mmHg 71%
17:00 +21°C° 0.4 mm 2 mps 681 mmHg 78%
18:00 +21°C° 0.4 mm 1 mps 681 mmHg 85%
19:00 +20°C° 0.4 mm 1 mps 681 mmHg 92%
20:00 +18°C° 0.1 mm 1 mps 681 mmHg 93%
21:00 +16°C° 0.1 mm 1 mps 681 mmHg 95%
22:00 +15°C° 0.1 mm 1 mps 681 mmHg 96%
23:00 +15°C° 0 mm 1 mps 681 mmHg 96%

Tomorrow, 7 August, Friday

Time Temperature Precipitation Wind Pressure Humidity
00:00 +15°C° 0 mm 1 mps 681 mmHg 95%
01:00 +15°C° 0 mm 1 mps 681 mmHg 95%
02:00 +14°C° 0 mm 1 mps 681 mmHg 95%
03:00 +14°C° 0 mm 1 mps 681 mmHg 95%
04:00 +14°C° 0 mm 1 mps 680 mmHg 95%
05:00 +15°C° 0 mm 1 mps 681 mmHg 93%
06:00 +15°C° 0 mm 0 mps 681 mmHg 91%
07:00 +16°C° 0 mm 0 mps 682 mmHg 89%
08:00 +19°C° 0 mm 0 mps 682 mmHg 79%
09:00 +23°C° 0 mm 1 mps 682 mmHg 70%
10:00 +25°C° 0 mm 1 mps 683 mmHg 60%
11:00 +26°C° 0 mm 1 mps 683 mmHg 56%
12:00 +27°C° 0 mm 1 mps 683 mmHg 53%
13:00 +28°C° 0 mm 1 mps 683 mmHg 49%
14:00 +27°C° 0.2 mm 2 mps 682 mmHg 54%
15:00 +26°C° 0.2 mm 2 mps 682 mmHg 59%
16:00 +26°C° 0.2 mm 2 mps 682 mmHg 64%
17:00 +24°C° 0.4 mm 1 mps 682 mmHg 72%
18:00 +22°C° 0.4 mm 1 mps 681 mmHg 81%
19:00 +19°C° 0.4 mm 0 mps 681 mmHg 89%
20:00 +20°C° 0 mm 1 mps 681 mmHg 90%
21:00 +19°C° 0 mm 1 mps 681 mmHg 91%
22:00 +18°C° 0 mm 1 mps 681 mmHg 91%
23:00 +16°C° 0 mm 1 mps 681 mmHg 91%

Day after tomorrow, 8 August, Saturday

Time Temperature Precipitation Wind Pressure Humidity
00:00 +16°C° 0 mm 1 mps 681 mmHg 90%
01:00 +15°C° 0 mm 1 mps 681 mmHg 90%
02:00 +15°C° 0 mm 1 mps 681 mmHg 90%
03:00 +15°C° 0 mm 1 mps 681 mmHg 90%
04:00 +14°C° 0 mm 1 mps 681 mmHg 90%
05:00 +16°C° 0 mm 1 mps 681 mmHg 87%
06:00 +18°C° 0 mm 1 mps 682 mmHg 85%
07:00 +17°C° 0 mm 0 mps 682 mmHg 83%
08:00 +22°C° 0 mm 1 mps 682 mmHg 73%
09:00 +24°C° 0 mm 1 mps 683 mmHg 64%
10:00 +26°C° 0 mm 1 mps 683 mmHg 55%
11:00 +27°C° 0 mm 1 mps 683 mmHg 51%
12:00 +28°C° 0 mm 1 mps 683 mmHg 48%
13:00 +28°C° 0 mm 2 mps 682 mmHg 44%
14:00 +28°C° 0 mm 2 mps 682 mmHg 48%
15:00 +27°C° 0 mm 2 mps 682 mmHg 52%
16:00 +27°C° 0 mm 2 mps 682 mmHg 56%
17:00 +25°C° 0.3 mm 2 mps 681 mmHg 67%
18:00 +23°C° 0.3 mm 1 mps 681 mmHg 79%
19:00 +19°C° 0.3 mm 0 mps 681 mmHg 90%
20:00 +20°C° 0 mm 1 mps 681 mmHg 91%
21:00 +19°C° 0 mm 1 mps 681 mmHg 92%
22:00 +18°C° 0 mm 1 mps 681 mmHg 93%
23:00 +16°C° 0 mm 1 mps 681 mmHg 93%

9 August, Sunday

Time Temperature Precipitation Wind Pressure Humidity
00:00 +16°C° 0 mm 1 mps 681 mmHg 93%
01:00 +16°C° 0 mm 1 mps 680 mmHg 93%
02:00 +15°C° 0 mm 1 mps 680 mmHg 92%
03:00 +15°C° 0 mm 1 mps 680 mmHg 92%
04:00 +15°C° 0 mm 1 mps 680 mmHg 92%
05:00 +16°C° 0 mm 1 mps 680 mmHg 89%
06:00 +18°C° 0 mm 1 mps 680 mmHg 87%
07:00 +18°C° 0 mm 0 mps 681 mmHg 85%
08:00 +20°C° 0 mm 0 mps 681 mmHg 74%
09:00 +24°C° 0 mm 1 mps 682 mmHg 64%
10:00 +27°C° 0 mm 1 mps 682 mmHg 54%
11:00 +27°C° 0 mm 1 mps 682 mmHg 49%
12:00 +28°C° 0 mm 1 mps 682 mmHg 45%
13:00 +28°C° 0 mm 2 mps 681 mmHg 41%
14:00 +28°C° 0 mm 2 mps 681 mmHg 45%
15:00 +28°C° 0 mm 2 mps 681 mmHg 48%
16:00 +27°C° 0 mm 2 mps 681 mmHg 51%
17:00 +25°C° 0.3 mm 2 mps 680 mmHg 64%
18:00 +23°C° 0.3 mm 1 mps 680 mmHg 77%
19:00 +21°C° 0.3 mm 1 mps 680 mmHg 90%
20:00 +20°C° 0.2 mm 1 mps 679 mmHg 91%
21:00 +19°C° 0.2 mm 1 mps 679 mmHg 92%
22:00 +18°C° 0.2 mm 1 mps 679 mmHg 93%
23:00 +16°C° 0 mm 1 mps 679 mmHg 93%

10 August, Monday

Time Temperature Precipitation Wind Pressure Humidity
00:00 +16°C° 0 mm 1 mps 679 mmHg 92%
01:00 +16°C° 0 mm 1 mps 679 mmHg 92%
02:00 +16°C° 0 mm 1 mps 679 mmHg 92%
03:00 +15°C° 0 mm 1 mps 679 mmHg 92%
04:00 +15°C° 0 mm 1 mps 679 mmHg 92%
05:00 +16°C° 0 mm 1 mps 679 mmHg 89%
06:00 +19°C° 0 mm 1 mps 679 mmHg 87%
07:00 +18°C° 0 mm 0 mps 679 mmHg 84%
08:00 +20°C° 0 mm 0 mps 680 mmHg 75%
09:00 +24°C° 0 mm 1 mps 680 mmHg 66%
10:00 +27°C° 0 mm 1 mps 681 mmHg 57%
11:00 +27°C° 0.1 mm 1 mps 681 mmHg 54%
12:00 +28°C° 0.1 mm 1 mps 680 mmHg 51%
13:00 +28°C° 0.1 mm 2 mps 680 mmHg 49%
14:00 +28°C° 0.5 mm 2 mps 680 mmHg 55%
15:00 +27°C° 0.5 mm 2 mps 680 mmHg 61%
16:00 +26°C° 0.5 mm 2 mps 679 mmHg 67%
17:00 +24°C° 1.1 mm 1 mps 679 mmHg 75%
18:00 +23°C° 1.1 mm 1 mps 679 mmHg 83%
19:00 +19°C° 1.1 mm 0 mps 679 mmHg 91%
20:00 +18°C° 0.2 mm 0 mps 679 mmHg 91%
21:00 +19°C° 0.2 mm 1 mps 679 mmHg 91%
22:00 +18°C° 0.2 mm 1 mps 679 mmHg 90%
23:00 +16°C° 0 mm 1 mps 679 mmHg 90%

11 August, Tuesday

Time Temperature Precipitation Wind Pressure Humidity
00:00 +16°C° 0 mm 1 mps 679 mmHg 90%
01:00 +16°C° 0 mm 1 mps 679 mmHg 91%
02:00 +15°C° 0 mm 1 mps 679 mmHg 91%
03:00 +15°C° 0 mm 1 mps 678 mmHg 91%
04:00 +15°C° 0 mm 1 mps 678 mmHg 91%
05:00 +16°C° 0 mm 1 mps 679 mmHg 89%
06:00 +18°C° 0 mm 1 mps 679 mmHg 87%
07:00 +18°C° 0 mm 0 mps 679 mmHg 85%
08:00 +22°C° 0 mm 1 mps 680 mmHg 76%
09:00 +24°C° 0 mm 1 mps 680 mmHg 67%
10:00 +26°C° 0 mm 1 mps 680 mmHg 57%
11:00 +27°C° 0.1 mm 1 mps 680 mmHg 55%
12:00 +27°C° 0.1 mm 2 mps 680 mmHg 52%
13:00 +28°C° 0.1 mm 2 mps 680 mmHg 49%
14:00 +27°C° 0.4 mm 2 mps 680 mmHg 57%
15:00 +26°C° 0.4 mm 2 mps 679 mmHg 65%
16:00 +25°C° 0.4 mm 2 mps 679 mmHg 73%
17:00 +23°C° 0.4 mm 1 mps 679 mmHg 79%
18:00 +22°C° 0.4 mm 1 mps 679 mmHg 85%
19:00 +18°C° 0.4 mm 0 mps 678 mmHg 91%
20:00 +19°C° 0 mm 1 mps 678 mmHg 92%
21:00 +19°C° 0 mm 1 mps 678 mmHg 92%
22:00 +18°C° 0 mm 1 mps 678 mmHg 93%
23:00 +16°C° 0 mm 1 mps 678 mmHg 93%
Show more